Location: Ethel Rock
(53.4667°N, 4.5667°W)
Time: 01:10:49
(UTC+00:00)

Cosmos 2333 Rocket - Pass Details

Date: 24 October 2020
Orbit: 841 x 861 km, 70.8° (Epoch: 26 November)

Event Time Altitude Azimuth Distance (km) Brightness Sun altitude
Exits shadow 04:56:52 - 328° (NNW) 2,851 4.7 -19.3°
Reaches altitude 10° 04:58:25 10° 339° (NNW) 2,488 4.5 -19.1°
Maximum altitude 05:01:44 16° 15° (NNE) 2,115 4.5 -18.6°
Drops below altitude 10° 05:05:03 10° 51° (NE) 2,478 5.4 -18.1°
Sets 05:08:37 0° 74° (ENE) 3,408 6.9 -17.5°
